2023-07-03 17:03:34,  19,  -16.337856847,   64.102453626,  112.32,  7.25,  3.9, 2680564.5002405844, -785774.8553614975, 5714813.580711039, 0.0
2023-07-04 15:01:50,  19,  -16.337856887,   64.102453571,  112.071,  5.51,  3.9, 2680564.4006224666, -785774.8281918537, 5714813.354038503, 0.2491
2023-07-04 15:01:50,  19,  -16.337856887,   64.102453571,  112.071,  5.51,  3.9, 2680564.4006224666, -785774.8281918537, 5714813.354038503, 0.0
2023-07-04 15:01:50,  19,  -16.337856887,   64.102453571,  112.071,  5.51,  3.9, 2680564.4006224666, -785774.8281918537, 5714813.354038503, 0.0
2023-07-04 18:01:06,  19,  -16.337856872,   64.102453652,  112.069,  6.63,  3.9, 2680564.3921948117, -785774.824959316, 5714813.356183302, 0.0093
2023-07-04 21:01:50,  19,  -16.337856987,   64.102453530,  111.985,  5.32,  3.9, 2680564.3671518173, -785774.8234608273, 5714813.274678606, 0.0853
2023-07-05 00:01:20,  19,  -16.337857198,   64.102453413,  111.934,  5.26,  3.9, 2680564.3541422444, -785774.8303670568, 5714813.223103386, 0.0536
2023-07-05 03:01:04,  19,  -16.337856770,   64.102453559,  112.013,  4.8,  3.9, 2680564.3790725344, -785774.8159305834, 5714813.301278777, 0.0833
2023-07-05 06:01:04,  19,  -16.337856849,   64.102453532,  111.949,  5.17,  3.9, 2680564.3537633703, -785774.8125250951, 5714813.2423912315, 0.0642
2023-07-05 09:01:10,  19,  -16.337856831,   64.102453553,  111.94,  5.04,  3.9, 2680564.348217132, -785774.8099847949, 5714813.23531755, 0.0093
2023-07-05 12:01:04,  19,  -16.337856983,   64.102453569,  111.937,  6.11,  3.9, 2680564.343335393, -785774.8162761129, 5714813.233397873, 0.0082
2023-07-05 15:01:04,  19,  -16.337857226,   64.102453756,  111.943,  4.46,  3.91, 2680564.3245214312, -785774.8231066124, 5714813.247900503, 0.0247
2023-07-05 18:01:06,  19,  -16.337857140,   64.102453771,  111.937,  4.88,  3.9, 2680564.321742565, -785774.8179228028, 5714813.243233405, 0.0075
2023-07-05 21:01:04,  19,  -16.337857092,   64.10245368,  111.894,  2.09,  3.9, 2680564.313135888, -785774.8129612263, 5714813.200120756, 0.0442
2023-07-06 00:01:50,  19,  -16.337856881,   64.102453601,  111.9,  2.47,  3.9, 2680564.326147023, -785774.8060554544, 5714813.201671647, 0.0148
2023-07-06 03:01:52,  19,  -16.337856955,   64.102453812,  111.82,  3.24,  3.9, 2680564.271296233, -785774.7937361734, 5714813.139979277, 0.0835
2023-07-06 06:01:10,  19,  -16.337857043,   64.102453899,  111.839,  3.83,  3.9, 2680564.2696802416, -785774.7977332936, 5714813.161307326, 0.0218
2023-07-06 09:01:04,  19,  -16.337857052,   64.102453876,  111.881,  4.67,  3.91, 2680564.289373558, -785774.8039633936, 5714813.19796965, 0.0421
2023-07-06 12:01:06,  19,  -16.337856988,   64.102453876,  111.862,  4.77,  3.91, 2680564.2822878715, -785774.7986347993, 5714813.180877697, 0.0193
2023-07-06 21:01:36,  19,  -16.337856892,   64.10245381,  111.826,  3.43,  3.9, 2680564.274867469, -785774.7915823311, 5714813.145279354, 0.037
2023-07-07 00:01:36,  19,  -16.337856418,   64.102453879,  111.924,  2.56,  3.91, 2680564.3158021965, -785774.7795003398, 5714813.236797512, 0.101
2023-07-07 06:01:46,  19,  -16.337856849,   64.102453786,  111.795,  2.52,  3.91, 2680564.2647739258, -785774.7864389225, 5714813.116223904, 0.1311
2023-07-07 09:01:40,  19,  -16.337856749,   64.102453821,  111.808,  3.83,  3.9, 2680564.2682257467, -785774.7823702949, 5714813.129622576, 0.0144
2023-07-07 12:01:44,  19,  -16.337889561,   64.102457817,  110.95,  5.34,  3.91, 2680563.074060271, -785776.0993241261, 5714812.552354158, 1.8691
2023-07-07 12:01:44,  19,  -16.337889561,   64.102457817,  110.95,  5.34,  3.91, 2680563.074060271, -785776.0993241261, 5714812.552354158, 0.0
2023-07-07 13:02:14,  19,  -16.337888691,   64.102458066,  110.968,  4.05,  3.9, 2680563.0695732976, -785776.0538085907, 5714812.58067053, 0.0538
2023-07-07 15:01:18,  19,  -16.337856894,   64.102453789,  111.765,  4.21,  3.91, 2680564.2512942734, -785774.7847737455, 5714813.089382682, 1.8071
2023-07-07 18:01:28,  19,  -16.337856679,   64.102453821,  111.765,  3.26,  3.91, 2680564.251163308, -785774.7738123076, 5714813.0909407865, 0.0111
2023-07-07 21:01:44,  19,  -16.337856821,   64.102453755,  111.767,  3.43,  3.91, 2680564.2564056986, -785774.7825633419, 5714813.089526351, 0.0103
2023-07-08 00:01:32,  19,  -16.337857048,   64.102453471,  111.706,  3.47,  3.91, 2680564.2550568427, -785774.7937006466, 5714813.020824011, 0.0696
2023-07-08 06:01:40,  19,  -16.337856744,   64.102453719,  111.729,  3.44,  3.9, 2680564.2449993906, -785774.7753077468, 5714813.053589577, 0.0389
2023-07-08 09:01:40,  19,  -16.337856784,   64.102453710,  111.713,  3.91,  3.91, 2680564.2386109135, -785774.7754672373, 5714813.038758137, 0.0161
2023-07-08 12:01:04,  19,  -16.337866368,   64.102454769,  110.222,  4.06,  3.91, 2680563.380340835, -785775.0107895401, 5714811.749053093, 1.567
2023-07-08 18:01:34,  19,  -16.337866425,   64.102454646,  110.205,  4.86,  3.9, 2680563.3842709926, -785775.0148374956, 5714811.727771331, 0.022
2023-07-08 21:01:52,  19,  -16.337866316,   64.102454583,  110.143,  5.2,  3.92, 2680563.365842876, -785775.0038977847, 5714811.6689300705, 0.0626
2023-07-09 00:03:00,  19,  -16.337884691,   64.102457269,  110.177,  5.26,  3.9, 2680562.8696018336, -785775.7919698368, 5714811.830298989, 0.9452
2023-07-09 00:03:00,  19,  -16.337884691,   64.102457269,  110.177,  5.26,  3.9, 2680562.8696018336, -785775.7919698368, 5714811.830298989, 0.0
2023-07-09 00:03:00,  19,  -16.337884691,   64.102457269,  110.177,  5.26,  3.9, 2680562.8696018336, -785775.7919698368, 5714811.830298989, 0.0
2023-07-10 06:01:34,  19,  -16.337866187,   64.102454556,  109.998,  4.26,  3.9, 2680563.309437048, -785774.9808092662, 5714811.53717683, 0.9682
2023-07-10 09:01:36,  19,  -16.337866195,   64.102454657,  110.008,  4.76,  3.91, 2680563.303798765, -785774.97956291, 5714811.551090359, 0.0151
2023-07-10 09:01:36,  19,  -16.337866195,   64.102454657,  110.008,  4.76,  3.91, 2680563.303798765, -785774.97956291, 5714811.551090359, 0.0
2023-07-10 12:01:36,  19,  -16.33786624,   64.102454677,  109.986,  4.64,  3.9, 2680563.292036114, -785774.9784010487, 5714811.532273492, 0.0222
2023-07-10 15:01:28,  19,  -16.337866276,   64.102454646,  109.946,  6.96,  3.91, 2680563.2777606505, -785774.9760453424, 5714811.494781019, 0.0402
2023-07-10 21:01:48,  19,  -16.337866349,   64.102454561,  109.932,  4.1,  3.9, 2680563.279071787, -785774.9801384407, 5714811.478048235, 0.0173
2023-07-11 00:01:32,  19,  -16.337866152,   64.102454604,  109.928,  4.03,  3.9, 2680563.2759588617, -785774.9692173677, 5714811.476543631, 0.0115
2023-07-11 03:01:32,  19,  -16.337865317,   64.102454500,  109.793,  4.23,  3.91, 2680563.2408368075, -785774.9164997053, 5714811.350036967, 0.1415
2023-07-11 06:01:28,  19,  -16.337866409,   64.102454640,  109.903,  6.7,  3.91, 2680563.2584916125, -785774.9771539007, 5714811.455807085, 0.1232
2023-07-11 09:01:40,  19,  -16.337866277,   64.102454514,  109.849,  7.04,  3.91, 2680563.249794806, -785774.9678982955, 5714811.401094923, 0.0562
2023-07-11 12:01:42,  19,  -16.337866252,   64.102454560,  109.864,  5.81,  3.91, 2680563.251997709, -785774.9672739287, 5714811.416828343, 0.0159
2023-07-11 15:01:44,  19,  -16.337866315,   64.102454656,  109.819,  6.12,  3.91, 2680563.223034355, -785774.9619843746, 5714811.381021712, 0.0464
2023-07-11 21:01:28,  19,  -16.337866333,   64.102454538,  109.845,  6.2,  3.9, 2680563.2450406323, -785774.9693497383, 5714811.3986651935, 0.0292
2023-07-12 00:01:46,  19,  -16.337866563,   64.102454674,  109.783,  3.17,  3.91, 2680563.20281239, -785774.9686561517, 5714811.349513391, 0.0648
2023-07-12 03:01:32,  19,  -16.337866570,   64.102454700,  109.796,  4.02,  3.9, 2680563.205662899, -785774.9698473784, 5714811.3624738455, 0.0133
2023-07-12 03:01:32,  19,  -16.337866570,   64.102454700,  109.796,  4.02,  3.9, 2680563.205662899, -785774.9698473784, 5714811.3624738455, 0.0
2023-07-12 06:01:36,  19,  -16.337866574,   64.102454583,  109.793,  5.64,  3.91, 2680563.2156102704, -785774.9729665505, 5714811.354078298, 0.0134
2023-07-12 12:01:50,  19,  -16.337866232,   64.102454608,  109.787,  5.98,  3.91, 2680563.2153799236, -785774.9555237669, 5714811.349898108, 0.0179
2023-07-12 15:01:34,  19,  -16.337866422,   64.102454603,  109.712,  6.04,  3.91, 2680563.181820882, -785774.9553392587, 5714811.28218642, 0.0756
2023-07-12 18:01:36,  19,  -16.337866271,   64.102454612,  109.694,  5.87,  3.9, 2680563.175481348, -785774.9458093672, 5714811.266432258, 0.0195
2023-07-12 21:01:30,  19,  -16.337866249,   64.102454659,  109.719,  4.8,  3.91, 2680563.1817381373, -785774.9465257635, 5714811.2912101345, 0.0256
2023-07-13 00:01:46,  19,  -16.337866369,   64.102454653,  109.627,  4.38,  3.91, 2680563.142110187, -785774.9410058873, 5714811.208156954, 0.0922
2023-07-13 03:01:38,  19,  -16.337866227,   64.102454645,  109.679,  4.02,  3.9, 2680563.1666220953, -785774.94097697, 5714811.254545405, 0.0525
2023-07-13 06:01:32,  19,  -16.337866234,   64.102454605,  109.674,  5.43,  3.91, 2680563.1682799, -785774.9418185697, 5714811.248099893, 0.0067
2023-07-13 12:01:38,  19,  -16.337866128,   64.102454545,  109.617,  6.81,  3.9, 2680563.1516175647, -785774.9315488918, 5714811.193902589, 0.0576
2023-07-13 15:01:30,  19,  -16.337866243,   64.102454538,  109.626,  5.34,  3.9, 2680563.1544862054, -785774.9382323571, 5714811.2016579425, 0.0106
2023-07-13 18:01:36,  19,  -16.337866326,   64.102454497,  109.57,  5.07,  3.9, 2680563.1338225016, -785774.936391843, 5714811.149285339, 0.0563
2023-07-13 21:01:32,  19,  -16.337866197,   64.102454570,  109.6,  4.48,  3.9, 2680563.1411402235, -785774.9319831193, 5714811.179827057, 0.0317
2023-07-14 00:01:36,  19,  -16.337866159,   64.102454520,  109.588,  4.8,  3.9, 2680563.1414436502, -785774.9301414811, 5714811.166597602, 0.0134
2023-07-14 03:01:34,  19,  -16.337865967,   64.102454515,  109.554,  2.83,  3.9, 2680563.1303076814, -785774.9171225737, 5714811.135768549, 0.0353
2023-07-14 06:01:44,  19,  -16.337864782,   64.102455107,  109.755,  3.82,  3.91, 2680563.173831943, -785774.8696774379, 5714811.345408337, 0.2193
2023-07-14 09:01:36,  19,  -16.337865977,   64.102454566,  109.516,  4.63,  3.91, 2680563.1093356945, -785774.911482936, 5714811.104067868, 0.2533
2023-07-14 12:01:34,  19,  -16.337866105,   64.102454547,  109.547,  5.65,  3.91, 2680563.122401665, -785774.9218160893, 5714811.131029616, 0.0317
2023-07-14 15:01:36,  19,  -16.337866162,   64.102454534,  109.525,  5.67,  3.91, 2680563.1136502284, -785774.9221465874, 5714811.110605954, 0.0222
2023-07-14 18:01:42,  19,  -16.337866562,   64.102454367,  109.666,  3.79,  3.91, 2680563.183332738, -785774.9628951206, 5714811.229314887, 0.1436
2023-07-14 21:01:34,  19,  -16.337866369,   64.102454603,  109.491,  4.93,  3.91, 2680563.089920771, -785774.9257071858, 5714811.083380015, 0.1772
2023-07-15 00:01:34,  19,  -16.337866195,   64.102454513,  109.485,  2.2,  3.91, 2680563.0984535473, -785774.9193684226, 5714811.07360039, 0.0144
2023-07-15 03:01:32,  19,  -16.337866158,   64.102454554,  109.493,  2.13,  3.91, 2680563.098368315, -785774.9174636584, 5714811.082793321, 0.0094
2023-07-15 06:01:40,  19,  -16.337866079,   64.102454546,  109.474,  1.81,  3.91, 2680563.092258234, -785774.9116589782, 5714811.065311842, 0.0194
2023-07-15 09:01:24,  19,  -16.337866128,   64.102454546,  109.475,  1.91,  3.9, 2680563.092005356, -785774.914074288, 5714811.066211417, 0.0026
2023-07-15 12:01:20,  19,  -16.337866116,   64.102454385,  109.499,  3.23,  3.91, 2680563.1177229574, -785774.9210034359, 5714811.079962046, 0.03
2023-07-25 12:01:34,  19,  -16.337866889,   64.102453906,  108.515,  1.98,  3.9, 2680562.7407982317, -785774.8497846196, 5714810.171455922, 0.9862
2023-07-25 15:01:22,  19,  -16.337866849,   64.102453746,  108.489,  2.18,  3.9, 2680562.745847268, -785774.8492324903, 5714810.140276416, 0.0316
2023-07-25 18:01:26,  19,  -16.337866917,   64.10245395,  108.514,  1.95,  3.9, 2680562.7357607204, -785774.8497304692, 5714810.172698738, 0.034
2023-07-25 21:01:42,  19,  -16.337867138,   64.102454005,  108.5,  1.73,  3.9, 2680562.721569098, -785774.8567982359, 5714810.162782657, 0.0187
2023-07-26 12:01:24,  19,  -16.337866962,   64.102453896,  108.477,  2.18,  3.9, 2680562.7248326326, -785774.8488132493, 5714810.136785108, 0.0274
2023-07-26 15:02:04,  19,  -16.337866529,   64.102453933,  108.475,  2.45,  3.9, 2680562.7263719663, -785774.8272659883, 5714810.136787512, 0.0216
2023-07-26 21:01:28,  19,  -16.337866658,   64.102453864,  108.48,  1.66,  3.9, 2680562.733338729, -785774.8358620362, 5714810.137925735, 0.0111
2023-07-27 00:01:52,  19,  -16.337866671,   64.102454362,  108.467,  1.68,  3.89, 2680562.6797862905, -785774.820824244, 5714810.150479222, 0.057
2023-07-27 03:01:34,  19,  -16.337866763,   64.102453791,  108.461,  1.6,  3.89, 2680562.7309605395, -785774.8404994075, 5714810.117279358, 0.0641
2023-07-27 06:01:36,  19,  -16.337866719,   64.102453774,  108.442,  1.82,  3.89, 2680562.725236578, -785774.8365860834, 5714810.099359662, 0.0192
2023-07-27 09:01:32,  19,  -16.337866771,   64.102453949,  108.467,  3.08,  3.89, 2680562.718160304, -785774.8371536105, 5714810.130369952, 0.0318
2023-07-27 12:01:34,  19,  -16.337866875,   64.102453934,  108.449,  3.26,  3.89, 2680562.710633272, -785774.8402308549, 5714810.113447213, 0.0188
2023-07-27 15:01:34,  19,  -16.337866651,   64.102453873,  108.419,  3.61,  3.9, 2680562.7070018835, -785774.8277860719, 5714810.083489786, 0.0326
2023-07-27 18:01:32,  19,  -16.337866946,   64.102453843,  108.425,  2.69,  3.89, 2680562.708357984, -785774.8431710259, 5714810.087426523, 0.0159
2023-07-27 21:01:34,  19,  -16.337866868,   64.102453893,  108.404,  1.91,  3.89, 2680562.69581425, -785774.8355312025, 5714810.070969952, 0.0221
2023-07-28 00:01:30,  19,  -16.337866906,   64.102453847,  108.466,  2.03,  3.89, 2680562.7257058057, -785774.846224138, 5714810.124503922, 0.0622
2023-07-28 03:01:44,  19,  -16.337866602,   64.102453772,  108.377,  1.59,  3.9, 2680562.699790401, -785774.8231826748, 5714810.040789811, 0.0906
2023-07-28 06:01:36,  19,  -16.337866753,   64.102453846,  108.406,  3.41,  3.9, 2680562.7027527443, -785774.8317225818, 5714810.070480642, 0.031
2023-07-28 09:01:36,  19,  -16.337866717,   64.102453806,  108.341,  4.95,  3.91, 2680562.679852671, -785774.8231807254, 5714810.01006054, 0.0652
2023-07-28 12:01:28,  19,  -16.337866674,   64.102453734,  108.345,  5.48,  3.9, 2680562.6890478833, -785774.8236915835, 5714810.010153114, 0.0092
2023-07-28 15:01:46,  19,  -16.337866714,   64.102453804,  108.372,  5.93,  3.9, 2680562.69307921, -785774.8269055121, 5714810.037850032, 0.0282
2023-07-28 18:01:30,  19,  -16.337866796,   64.102453737,  108.362,  4.85,  3.9, 2680562.6942111757, -785774.8314033318, 5714810.025591986, 0.0131
2023-07-28 21:01:42,  19,  -16.337866763,   64.102453889,  108.332,  3.09,  3.9, 2680562.6674620872, -785774.8218855972, 5714810.006005683, 0.0345
2023-07-29 00:01:42,  19,  -16.337866805,   64.102453939,  108.354,  2.64,  3.9, 2680562.671295071, -785774.8251429939, 5714810.028230904, 0.0228
2023-07-29 03:01:40,  19,  -16.337866028,   64.102453587,  108.325,  2.63,  3.9, 2680562.7036715117, -785774.7951583953, 5714809.985004049, 0.0618
2023-07-29 06:01:28,  19,  -16.337866712,   64.102453932,  108.31,  2.91,  3.9, 2680562.6548025887, -785774.8155835697, 5714809.988308701, 0.0531
2023-07-29 09:01:40,  19,  -16.33786677,   64.10245381,  108.324,  3.78,  3.9, 2680562.6716157147, -785774.8234588171, 5714809.994962504, 0.0197
2023-07-29 12:02:32,  19,  -16.337866729,   64.102453883,  108.3,  4.8,  3.89, 2680562.6550937416, -785774.8165326001, 5714809.97692709, 0.0254
2023-07-29 15:01:24,  19,  -16.337866704,   64.102453801,  108.319,  3.55,  3.9, 2680562.671291353, -785774.8200106146, 5714809.990026405, 0.0211
2023-07-29 18:01:56,  19,  -16.337866860,   64.102453743,  108.307,  3.38,  3.9, 2680562.669704079, -785774.8274708799, 5714809.976407425, 0.0156
2023-07-29 21:01:22,  19,  -16.337866876,   64.102453784,  108.314,  2.53,  3.9, 2680562.6684728605, -785774.8279228406, 5714809.984700781, 0.0084
2023-07-30 00:01:26,  19,  -16.33786672,   64.102453898,  108.29,  1.73,  3.89, 2680562.6495823646, -785774.8144597625, 5714809.968661686, 0.0282
2023-07-30 06:01:50,  19,  -16.337866603,   64.102453916,  108.312,  1.96,  3.9, 2680562.6586754825, -785774.8111811341, 5714809.9893288035, 0.0228
2023-07-30 09:01:34,  19,  -16.337866724,   64.102453771,  108.275,  3.91,  3.9, 2680562.6554625747, -785774.8163866949, 5714809.9489843175, 0.0408
2023-07-30 15:01:38,  19,  -16.337866554,   64.102453606,  108.193,  3.42,  3.9, 2680562.6393045676, -785774.8030133453, 5714809.867185076, 0.0844
2023-07-30 18:01:28,  19,  -16.337866837,   64.102453812,  108.238,  2.32,  3.9, 2680562.6344594946, -785774.8159708411, 5714809.9176963065, 0.0524
2023-07-30 21:01:42,  19,  -16.337866714,   64.102453820,  108.25,  1.64,  3.89, 2680562.6404059925, -785774.8114649898, 5714809.92888075, 0.0134
2023-07-31 03:01:32,  19,  -16.337866827,   64.102453825,  108.204,  2.16,  3.89, 2680562.6190952673, -785774.8109589535, 5714809.887743686, 0.0463
2023-07-31 06:01:46,  19,  -16.337866607,   64.102453916,  108.186,  2.31,  3.9, 2680562.605810676, -785774.7958876691, 5714809.875982166, 0.0233
2023-07-31 12:01:34,  19,  -16.337866576,   64.102453906,  108.179,  3.16,  3.9, 2680562.6042642943, -785774.7938594159, 5714809.869198222, 0.0072
2023-07-31 15:01:36,  19,  -16.337866392,   64.102453755,  108.183,  2.86,  3.89, 2680562.6229958707, -785774.7900022618, 5714809.86544423, 0.0195
2023-07-31 18:02:24,  19,  -16.337866543,   64.102453681,  108.138,  2.52,  3.88, 2680562.6091857674, -785774.7936255271, 5714809.821360174, 0.0463
2023-07-31 21:01:30,  19,  -16.337866724,   64.102453774,  108.207,  2.18,  3.9, 2680562.626673259, -785774.8079474521, 5714809.887959189, 0.0703
2023-08-01 00:02:30,  19,  -16.337866359,   64.102453744,  108.159,  2.26,  3.89, 2680562.614448001, -785774.7858199966, 5714809.843318796, 0.0513
2023-08-01 03:01:50,  19,  -16.337866546,   64.102452902,  108.138,  1.98,  3.9, 2680562.684112428, -785774.815741794, 5714809.783430099, 0.0966
2023-08-01 06:01:30,  19,  -16.337866334,   64.102453719,  108.11,  2.4,  3.9, 2680562.596659558, -785774.7793354066, 5714809.79802228, 0.0958
2023-08-01 12:01:46,  19,  -16.337866153,   64.102453514,  108.098,  3.65,  3.89, 2680562.6138407057, -785774.7751761776, 5714809.777245763, 0.0273
2023-08-01 15:01:36,  19,  -16.337866186,   64.102453517,  108.105,  3.69,  3.88, 2680562.6160333105, -785774.7774954732, 5714809.783688871, 0.0072
2023-08-01 18:01:32,  19,  -16.337866152,   64.102453464,  108.063,  2.95,  3.89, 2680562.6039967868, -785774.7722397461, 5714809.74332605, 0.0424
2023-08-02 00:01:52,  19,  -16.337865981,   64.102453643,  108.091,  1.97,  3.89, 2680562.6008512513, -785774.7626300422, 5714809.777229832, 0.0354
2023-08-02 03:01:36,  19,  -16.337866140,   64.102453594,  108.05,  1.83,  3.88, 2680562.5862020403, -785774.7664137714, 5714809.73796135, 0.0421
2023-08-02 06:01:32,  19,  -16.337866124,   64.10245367,  108.037,  2.13,  3.89, 2680562.573658892, -785774.7619240206, 5714809.72996735, 0.0155
2023-08-02 09:01:46,  19,  -16.337865904,   64.102453623,  108.009,  2.97,  3.88, 2680562.5694635953, -785774.7495171545, 5714809.702490745, 0.0304
2023-08-02 12:01:30,  19,  -16.337866139,   64.102453509,  108.021,  3.05,  3.89, 2680562.582241139, -785774.7652018759, 5714809.707734921, 0.0209
2023-08-02 15:01:40,  19,  -16.337866272,   64.102453402,  107.951,  5.26,  3.89, 2680562.5613755155, -785774.7658424126, 5714809.63955466, 0.0713
2023-08-02 21:02:06,  19,  -16.337866354,   64.102453962,  107.875,  2.34,  3.89, 2680562.4745051884, -785774.744543415, 5714809.598453652, 0.0984
2023-08-03 00:01:52,  19,  -16.337866078,   64.102453645,  107.925,  1.9,  3.88, 2680562.5297534736, -785774.7467166511, 5714809.627997518, 0.0627
2023-08-03 03:01:36,  19,  -16.337866122,   64.102453824,  107.941,  2.28,  3.88, 2680562.5186298336, -785774.7456913027, 5714809.651106379, 0.0257
2023-08-03 06:01:40,  19,  -16.337866003,   64.102453642,  107.933,  2.85,  3.89, 2680562.5344237713, -785774.7442753298, 5714809.635048056, 0.0226
2023-08-03 09:02:10,  19,  -16.337865958,   64.102453635,  107.908,  3.34,  3.89, 2680562.5252364036, -785774.7392959452, 5714809.61221781, 0.0251
2023-08-03 12:01:22,  19,  -16.337865995,   64.102453607,  107.927,  4.49,  3.89, 2680562.5353869842, -785774.7441512453, 5714809.627946422, 0.0193
2023-08-03 15:01:24,  19,  -16.337866219,   64.10245353,  107.874,  3.83,  3.89, 2680562.5175114265, -785774.7502915242, 5714809.576519684, 0.0548
2023-08-03 18:01:24,  19,  -16.337866201,   64.102453456,  107.862,  5.13,  3.9, 2680562.5198502257, -785774.7500626284, 5714809.562121651, 0.0146
2023-08-03 21:01:24,  19,  -16.337866257,   64.102453524,  107.866,  4.12,  3.89, 2680562.5142146857, -785774.7512557084, 5714809.569030927, 0.009
2023-08-04 00:01:26,  19,  -16.337866362,   64.102453522,  107.904,  2.64,  3.89, 2680562.52889396, -785774.76089327, 5714809.603117452, 0.0383
2023-08-04 03:01:46,  19,  -16.337866074,   64.102453643,  107.866,  2.45,  3.88, 2680562.5052723344, -785774.7393370796, 5714809.574825123, 0.0427
2023-08-04 06:01:36,  19,  -16.337866303,   64.102453588,  107.858,  2.52,  3.89, 2680562.50407171, -785774.7506194394, 5714809.564950521, 0.015
2023-08-04 09:01:32,  19,  -16.337866181,   64.102453548,  107.834,  2.9,  3.89, 2680562.499535262, -785774.7430914434, 5714809.541413057, 0.0251
2023-08-04 12:01:38,  19,  -16.337866019,   64.102453628,  107.847,  3.76,  3.89, 2680562.499506757, -785774.7348527035, 5714809.557002809, 0.0176
2023-08-04 15:01:36,  19,  -16.337866191,   64.102453666,  107.844,  3.6,  3.88, 2680562.4922335423, -785774.7414590805, 5714809.556154327, 0.0099
2023-08-04 18:02:14,  19,  -16.337866203,   64.102453577,  107.8,  4.52,  3.9, 2680562.4821923994, -785774.739125298, 5714809.512239488, 0.0451
2023-08-04 21:02:14,  19,  -16.337865992,   64.102453603,  107.751,  2.8,  3.88, 2680562.4620467923, -785774.7225000334, 5714809.469426199, 0.0502
2023-08-05 00:02:32,  19,  -16.337866234,   64.102453769,  107.717,  2.27,  3.89, 2680562.428502448, -785774.7249616826, 5714809.446923257, 0.0405
2023-08-05 03:01:36,  19,  -16.337865695,   64.102453255,  107.71,  2.19,  3.89, 2680562.482425873, -785774.7133848792, 5714809.415599191, 0.0634
2023-08-05 06:02:20,  19,  -16.337865986,   64.102453629,  107.777,  2.16,  3.88, 2680562.4705242356, -785774.7246802655, 5714809.494081144, 0.0802
2023-08-05 09:01:30,  19,  -16.337865992,   64.10245362,  107.766,  3.45,  3.89, 2680562.46669768, -785774.7238633854, 5714809.483747588, 0.011
2023-08-05 12:01:34,  19,  -16.337866214,   64.102453521,  107.766,  3.66,  3.89, 2680562.4731804505, -785774.7370424065, 5714809.478927207, 0.0155
2023-08-05 15:01:32,  19,  -16.337866238,   64.102453543,  107.772,  3.7,  3.89, 2680562.473248876, -785774.7382817807, 5714809.485395862, 0.0066
2023-08-05 18:01:30,  19,  -16.337866185,   64.102453498,  107.779,  2.77,  3.89, 2680562.48124024, -785774.7379316963, 5714809.489501813, 0.009
2023-08-05 21:01:42,  19,  -16.337866259,   64.102453516,  107.772,  2.56,  3.88, 2680562.475559245, -785774.740025939, 5714809.484081211, 0.0081
2023-08-06 00:01:42,  19,  -16.337866055,   64.102453492,  107.745,  2.26,  3.88, 2680562.469350219, -785774.7278416505, 5714809.458624068, 0.0289
2023-08-06 03:01:36,  19,  -16.337866206,   64.102453612,  107.73,  2.16,  3.88, 2680562.449444138, -785774.7296779525, 5714809.45097331, 0.0214
2023-08-06 06:01:38,  19,  -16.337866020,   64.102453649,  107.724,  2.98,  3.89, 2680562.4459195198, -785774.7191950527, 5714809.447377406, 0.0116
2023-08-06 09:01:26,  19,  -16.337865902,   64.102453467,  107.699,  4.21,  3.88, 2680562.454574589, -785774.7157372114, 5714809.416026283, 0.0327